Location: *
(58.4167°N, 22.5000°E)
Time: 03:45:43
(UTC+00:00)

Cosmos 1953 - Pass Details

Date: 22 September 2019
Orbit: 541 x 557 km, 82.5° (Epoch: 19 October)

Event Time Altitude Azimuth Distance (km) Brightness Sun altitude
Exits shadow 21:05:46 25° 298° (WNW) 1,141 4.3 -29.5°
Maximum altitude 21:05:46 25° 298° (WNW) 1,141 4.3 -29.5°
Drops below altitude 10° 21:09:11 10° 355° (N) 1,851 5.8 -29.6°
Sets 21:11:41 0° 9° (N) 2,754 6.8 -29.8°
